Date String (YYYY-MM-DD hh:mm:ss) UTC,Instrument flags,Ambient pressure (hPa),Sample flow (lpm),Bypass flow (lpm),Sample temperature (°C),Ambient temperature (°C),ASC tube jacket temperature (°C),LED temperature (°C),Box temperature (°C),Sample RH (%),Span deviation,Mass concentration (μg/m³),Mass concentration (μg/m³),Mass concentration (μg/m³)
DateTimeUTC,F1_M11,P_M11,Q1_M11,Q2_M11,T1_M11,T2_M11,T3_M11,T4_M11,T5_M11,U1_M11,ZSPAN_M11,X0_M11,X2_M11,X1_M11
2022-02-18 07:00:00,,0824.3,5.01,0.00,22.3,21.7,00.0,31.2,24.0,07.2,0000.0,0003.79,0001.99,0001.60
2022-02-18 07:01:00,,0824.3,5.00,0.00,22.2,21.6,00.0,31.2,23.9,07.3,0000.0,0003.63,0001.90,0001.55
2022-02-18 07:02:00,,0824.3,4.99,0.00,22.2,21.5,00.0,31.2,23.8,07.2,0000.0,0003.59,0001.85,0001.50
2022-02-18 07:03:00,,0824.3,5.00,0.00,22.1,21.4,00.0,31.2,23.7,07.3,0000.0,0003.19,0001.79,0001.45
2022-02-18 07:04:00,,0824.3,5.01,0.00,22.1,21.3,00.0,31.2,23.6,07.4,0000.0,0002.95,0001.74,0001.41
2022-02-18 07:05:00,,0824.3,5.00,0.00,22.0,21.2,00.0,31.1,23.6,07.5,0000.0,0002.80,0001.66,0001.37
2022-02-18 07:06:00,,0824.3,4.99,0.00,22.0,21.1,00.0,31.1,23.6,07.5,0000.0,0002.40,0001.61,0001.33
2022-02-18 07:07:00,,0824.2,5.01,0.00,21.9,21.1,00.0,31.1,23.6,07.5,0000.0,0002.33,0001.60,0001.31
2022-02-18 07:08:00,,0824.2,5.00,0.00,22.0,21.5,00.0,31.1,23.7,07.5,0000.0,0002.26,0001.57,0001.30
2022-02-18 07:09:00,,0824.2,5.01,0.00,22.1,22.4,00.0,31.1,23.9,07.4,0000.0,0002.28,0001.56,0001.28
2022-02-18 07:10:00,,0824.2,5.00,0.00,22.2,23.1,00.0,31.2,24.2,07.4,0000.0,0002.19,0001.52,0001.26
2022-02-18 07:11:00,,0824.3,4.99,0.00,22.3,23.0,00.0,31.2,24.3,07.3,0000.0,0002.18,0001.51,0001.26
2022-02-18 07:12:00,,0824.2,5.00,0.00,22.3,22.7,00.0,31.2,24.1,07.3,0000.0,0002.51,0001.51,0001.24
2022-02-18 07:13:00,,0824.3,5.00,0.00,22.3,22.4,00.0,31.2,24.0,07.3,0000.0,0002.55,0001.51,0001.23
2022-02-18 07:14:00,,0824.3,5.00,0.00,22.2,22.1,00.0,31.2,23.9,07.5,0000.0,0002.49,0001.50,0001.22
2022-02-18 07:15:00,,0824.3,5.01,0.00,22.2,21.9,00.0,31.2,23.9,07.6,0000.0,0002.52,0001.50,0001.22
2022-02-18 07:16:00,,0824.3,5.00,0.00,22.2,21.8,00.0,31.2,23.9,07.5,0000.0,0002.55,0001.49,0001.20
2022-02-18 07:17:00,,0824.3,4.99,0.00,22.1,21.7,00.0,31.2,23.8,07.4,0000.0,0002.59,0001.49,0001.18
2022-02-18 07:18:00,,0824.4,4.99,0.00,22.1,21.6,00.0,31.2,23.9,07.5,0000.0,0002.51,0001.46,0001.18
2022-02-18 07:19:00,,0824.4,5.00,0.00,22.1,21.6,00.0,31.2,23.9,07.4,0000.0,0002.53,0001.46,0001.17
2022-02-18 07:20:00,,0824.5,5.00,0.00,22.1,21.6,00.0,31.2,23.9,07.4,0000.0,0002.55,0001.47,0001.16
2022-02-18 07:21:00,,0824.4,4.99,0.00,22.1,21.5,00.0,31.1,23.8,07.5,0000.0,0002.73,0001.53,0001.16
2022-02-18 07:22:00,,0824.5,4.99,0.00,22.1,21.5,00.0,31.1,23.8,07.5,0000.0,0002.75,0001.52,0001.15
2022-02-18 07:23:00,,0824.5,5.01,0.00,22.1,21.5,00.0,31.1,23.8,07.6,0000.0,0002.43,0001.51,0001.15
2022-02-18 07:24:00,,0824.6,5.01,0.00,22.1,21.4,00.0,31.1,23.8,07.6,0000.0,0002.34,0001.51,0001.15
2022-02-18 07:25:00,,0824.6,4.99,0.00,22.0,21.4,00.0,31.1,23.7,07.5,0000.0,0002.37,0001.52,0001.16
2022-02-18 07:26:00,,0824.6,4.99,0.00,22.0,21.3,00.0,31.1,23.7,07.5,0000.0,0002.58,0001.56,0001.17
2022-02-18 07:27:00,,0824.5,4.99,0.00,22.0,21.3,00.0,31.1,23.7,07.4,0000.0,0002.59,0001.57,0001.17
2022-02-18 07:28:00,,0824.6,5.01,0.00,22.0,21.3,00.0,31.1,23.7,07.4,0000.0,0002.49,0001.55,0001.18
2022-02-18 07:29:00,,0824.5,5.00,0.00,22.0,21.3,00.0,31.1,23.7,07.4,0000.0,0002.65,0001.56,0001.19
2022-02-18 07:30:00,,0824.7,5.00,0.00,22.0,21.4,00.0,31.0,23.7,07.5,0000.0,0002.85,0001.59,0001.20
2022-02-18 07:31:00,,0824.6,5.00,0.00,22.1,22.1,00.0,31.1,23.9,07.5,0000.0,0002.80,0001.57,0001.20
2022-02-18 07:32:00,,0824.7,4.99,0.00,22.2,22.9,00.0,31.1,24.1,07.3,0000.0,0002.71,0001.55,0001.20
2022-02-18 07:33:00,,0824.8,5.01,0.00,22.3,23.1,00.0,31.2,24.3,07.3,0000.0,0002.64,0001.57,0001.23
2022-02-18 07:34:00,,0824.9,4.99,0.00,22.4,22.9,00.0,31.2,24.3,07.4,0000.0,0002.73,0001.60,0001.26
2022-02-18 07:35:00,,0824.8,5.00,0.00,22.4,22.6,00.0,31.2,24.2,07.3,0000.0,0002.85,0001.62,0001.27
2022-02-18 07:36:00,,0824.9,5.00,0.00,22.4,22.4,00.0,31.2,24.2,07.1,0000.0,0002.96,0001.64,0001.30
2022-02-18 07:37:00,,0824.9,5.01,0.00,22.4,22.3,00.0,31.2,24.1,07.1,0000.0,0002.83,0001.63,0001.31
2022-02-18 07:38:00,,0824.8,5.00,0.00,22.3,22.1,00.0,31.2,24.1,07.2,0000.0,0003.24,0001.63,0001.33
2022-02-18 07:39:00,,0824.9,4.99,0.00,22.3,21.9,00.0,31.2,24.0,07.5,0000.0,0004.45,0001.65,0001.33
2022-02-18 07:40:00,,0824.9,5.00,0.00,22.2,21.7,00.0,31.2,23.9,07.6,0000.0,0004.48,0001.66,0001.33
2022-02-18 07:41:00,,0824.9,5.00,0.00,22.2,21.6,00.0,31.2,23.8,07.6,0000.0,0004.34,0001.65,0001.33
2022-02-18 07:42:00,,0825.1,5.00,0.00,22.1,21.5,00.0,31.2,23.7,07.7,0000.0,0004.35,0001.66,0001.34
2022-02-18 07:43:00,,0825.1,4.99,0.00,22.1,21.4,00.0,31.2,23.7,07.7,0000.0,0004.28,0001.61,0001.33
2022-02-18 07:44:00,,0825.1,5.01,0.00,22.1,21.4,00.0,31.1,23.7,07.7,0000.0,0004.28,0001.61,0001.32
2022-02-18 07:45:00,,0825.1,5.00,0.00,22.0,21.3,00.0,31.1,23.7,07.8,0000.0,0004.29,0001.62,0001.30
2022-02-18 07:46:00,,0825.1,5.00,0.00,22.0,21.3,00.0,31.1,23.7,07.6,0000.0,0004.19,0001.61,0001.30
2022-02-18 07:47:00,,0825.1,5.00,0.00,22.0,21.3,00.0,31.1,23.7,07.4,0000.0,0004.20,0001.60,0001.28
2022-02-18 07:48:00,,0825.1,4.99,0.00,22.0,21.3,00.0,31.1,23.7,07.3,0000.0,0003.97,0001.56,0001.26
2022-02-18 07:49:00,,0825.1,5.01,0.00,22.0,21.3,00.0,31.1,23.7,07.3,0000.0,0003.87,0001.57,0001.23
2022-02-18 07:50:00,,0825.1,5.01,0.00,22.0,21.3,00.0,31.1,23.7,07.3,0000.0,0003.04,0001.57,0001.22
2022-02-18 07:51:00,,0825.1,4.99,0.00,22.0,21.5,00.0,31.1,23.7,07.2,0000.0,0002.90,0001.57,0001.22
2022-02-18 07:52:00,,0825.0,5.01,0.00,22.1,22.3,00.0,31.1,24.0,07.1,0000.0,0002.87,0001.55,0001.22
2022-02-18 07:53:00,,0825.1,5.00,0.00,22.2,23.1,00.0,31.1,24.2,07.1,0000.0,0002.84,0001.53,0001.22
2022-02-18 07:54:00,,0825.1,5.00,0.00,22.4,23.2,00.0,31.2,24.3,07.1,0000.0,0002.82,0001.52,0001.22
2022-02-18 07:55:00,,0825.0,4.99,0.00,22.4,22.9,00.0,31.2,24.3,07.1,0000.0,0002.97,0001.49,0001.22
2022-02-18 07:56:00,,0825.0,5.00,0.00,22.4,22.6,00.0,31.2,24.2,07.0,0000.0,0002.97,0001.45,0001.23
2022-02-18 07:57:00,,0825.1,5.00,0.00,22.4,22.4,00.0,31.2,24.1,07.0,0000.0,0002.95,0001.46,0001.23
2022-02-18 07:58:00,,0825.1,5.00,0.00,22.3,22.2,00.0,31.2,24.1,07.0,0000.0,0002.95,0001.49,0001.25
2022-02-18 07:59:00,,0825.1,5.00,0.00,22.3,22.1,00.0,31.2,24.1,07.0,0000.0,0002.96,0001.50,0001.26
